TANYUSHA 2 (42912 NORAD) Tracking and Keplerian Element Data

This shows tracking and keplerian element data for the satellite.

Feedback or suggestion? Click here.




ElementValue
Catalog42912
NameTANYUSHA 2
Epoch Orbit5135
Epoch Day193.53101311
Epoch Year2018
RAAN237.2502
Inclination51.6358
Eccentricity0.0005091
Argument of Perigee323.9585
Mean Anonmoly36.1067
Mean Motion15.65492118
Decay Rate0.00014052
L11 42912U 98067NB 18193.53101311 .00014052 00000-0 14269-3 0 9992
L22 42912 051.6358 237.2502 0005091 323.9585 036.1067 15.65492118051358

Live tracking and technical data element details for TANYUSHA 2 (NORAD 42912). TANYUSHA 2 can be tracked NOW for your location showing map with azimuth and elevation plus other details from your city location.

Track the satellite on the map from your city or location and see movement details for azimuth, elevation, latitude, longitude, range, height, and movement on the map or in text.







IsCatalogInMostPopularTable: catalog: 42912, numindb: 86
Update: records affected: 1



GetName: 42912 TANYUSHA 2

Hit Count: updated at: Wed, 18 Jul 2018 20:18:26 GMT